Location: La Coruña
(43.3623°N, 8.4115°W)
Time: 11:29:31
(UTC+01:00)

STARLINK-1123 - Pass Details

Date: 19 January 2020
Orbit: 530 x 531 km, 53.0° (Epoch: 18 February)

Event Time Altitude Azimuth Distance (km) Brightness Sun altitude
Rises 19:28:09 0° 258° (WSW) 2,683 9.3 -11.0°
Reaches altitude 10° 19:30:29 10° 267° (W) 1,797 7.6 -11.4°
Maximum altitude 19:34:17 37° 336° (NNW) 848 4.6 -12.0°
Enters shadow 19:37:21 15° 40° (NE) 1,531 5.4 -12.6°
